Meteo pe oră la e a/p Aeroportul Internațional Chișinău

Astăzi, 13 Iunie, Duminică

Timp Temperatura Precipitaţii Vânt Presiune Umiditate
00:00 +19°C° 0 mm 2 m/s 754 mmHg 71%
01:00 +19°C° 0 mm 2 m/s 754 mmHg 73%
02:00 +18°C° 0 mm 2 m/s 754 mmHg 76%
03:00 +18°C° 0 mm 2 m/s 753 mmHg 78%
04:00 +17°C° 0 mm 2 m/s 753 mmHg 81%
05:00 +17°C° 0 mm 2 m/s 752 mmHg 84%
06:00 +19°C° 0 mm 3 m/s 752 mmHg 78%
07:00 +20°C° 0 mm 4 m/s 752 mmHg 71%
08:00 +22°C° 0 mm 5 m/s 752 mmHg 65%
09:00 +22°C° 0.3 mm 5 m/s 752 mmHg 65%
10:00 +22°C° 0.3 mm 6 m/s 752 mmHg 66%
11:00 +22°C° 0.3 mm 7 m/s 752 mmHg 67%
12:00 +21°C° 0.3 mm 8 m/s 752 mmHg 71%
13:00 +18°C° 0.3 mm 8 m/s 753 mmHg 75%
14:00 +17°C° 0.3 mm 9 m/s 753 mmHg 79%
15:00 +16°C° 1 mm 8 m/s 753 mmHg 83%
16:00 +15°C° 1 mm 8 m/s 753 mmHg 86%
17:00 +14°C° 1 mm 7 m/s 754 mmHg 89%
18:00 +14°C° 0.2 mm 6 m/s 754 mmHg 89%
19:00 +14°C° 0.2 mm 5 m/s 754 mmHg 88%
20:00 +14°C° 0.2 mm 4 m/s 754 mmHg 88%
21:00 +14°C° 0 mm 5 m/s 754 mmHg 87%
22:00 +14°C° 0 mm 5 m/s 754 mmHg 86%
23:00 +14°C° 0 mm 5 m/s 754 mmHg 86%

Mâine, 14 Iunie, Luni

Timp Temperatura Precipitaţii Vânt Presiune Umiditate
00:00 +13°C° 0 mm 5 m/s 754 mmHg 88%
01:00 +11°C° 0 mm 6 m/s 754 mmHg 89%
02:00 +11°C° 0 mm 6 m/s 755 mmHg 91%
03:00 +10°C° 0 mm 6 m/s 755 mmHg 92%
04:00 +10°C° 0 mm 5 m/s 755 mmHg 93%
05:00 +10°C° 0 mm 5 m/s 755 mmHg 94%
06:00 +12°C° 0 mm 5 m/s 755 mmHg 90%
07:00 +13°C° 0 mm 6 m/s 755 mmHg 86%
08:00 +14°C° 0 mm 6 m/s 755 mmHg 83%
09:00 +15°C° 0 mm 6 m/s 755 mmHg 78%
10:00 +16°C° 0 mm 6 m/s 755 mmHg 73%
11:00 +17°C° 0 mm 5 m/s 755 mmHg 68%
12:00 +19°C° 0.1 mm 6 m/s 755 mmHg 67%
13:00 +19°C° 0.1 mm 6 m/s 755 mmHg 66%
14:00 +19°C° 0.1 mm 6 m/s 755 mmHg 66%
15:00 +19°C° 0.1 mm 6 m/s 755 mmHg 68%
16:00 +17°C° 0.1 mm 6 m/s 755 mmHg 71%
17:00 +17°C° 0.1 mm 6 m/s 756 mmHg 73%
18:00 +16°C° 0 mm 6 m/s 756 mmHg 77%
19:00 +15°C° 0 mm 6 m/s 756 mmHg 81%
20:00 +14°C° 0 mm 6 m/s 756 mmHg 86%
21:00 +14°C° 0 mm 6 m/s 756 mmHg 86%
22:00 +14°C° 0 mm 5 m/s 757 mmHg 87%
23:00 +14°C° 0 mm 5 m/s 757 mmHg 88%

Poimâine, 15 Iunie, Marţi

Timp Temperatura Precipitaţii Vânt Presiune Umiditate
00:00 +14°C° 0 mm 5 m/s 757 mmHg 88%
01:00 +14°C° 0 mm 4 m/s 757 mmHg 89%
02:00 +13°C° 0 mm 4 m/s 756 mmHg 90%
03:00 +13°C° 0 mm 4 m/s 756 mmHg 92%
04:00 +13°C° 0 mm 4 m/s 756 mmHg 93%
05:00 +13°C° 0 mm 4 m/s 756 mmHg 95%
06:00 +15°C° 0 mm 4 m/s 756 mmHg 90%
07:00 +16°C° 0 mm 5 m/s 756 mmHg 86%
08:00 +19°C° 0 mm 5 m/s 756 mmHg 81%
09:00 +21°C° 0 mm 5 m/s 756 mmHg 75%
10:00 +22°C° 0 mm 5 m/s 756 mmHg 69%
11:00 +24°C° 0 mm 6 m/s 755 mmHg 63%
12:00 +26°C° 0.5 mm 6 m/s 755 mmHg 60%
13:00 +27°C° 0.5 mm 6 m/s 754 mmHg 57%
14:00 +27°C° 0.5 mm 6 m/s 754 mmHg 54%
15:00 +26°C° 0.6 mm 6 m/s 754 mmHg 61%
16:00 +24°C° 0.6 mm 7 m/s 754 mmHg 67%
17:00 +23°C° 0.6 mm 7 m/s 753 mmHg 73%
18:00 +22°C° 1.2 mm 7 m/s 753 mmHg 78%
19:00 +21°C° 1.2 mm 6 m/s 753 mmHg 82%
20:00 +20°C° 1.2 mm 6 m/s 753 mmHg 86%
21:00 +19°C° 1.2 mm 5 m/s 753 mmHg 89%
22:00 +19°C° 1.2 mm 5 m/s 753 mmHg 92%
23:00 +18°C° 1.2 mm 4 m/s 753 mmHg 94%

16 Iunie, Miercuri

Timp Temperatura Precipitaţii Vânt Presiune Umiditate
00:00 +17°C° 0.9 mm 5 m/s 753 mmHg 95%
01:00 +17°C° 0.9 mm 5 m/s 753 mmHg 95%
02:00 +17°C° 0.9 mm 6 m/s 753 mmHg 95%
03:00 +17°C° 1.2 mm 6 m/s 753 mmHg 95%
04:00 +17°C° 1.2 mm 7 m/s 754 mmHg 94%
05:00 +17°C° 1.2 mm 7 m/s 754 mmHg 94%
06:00 +17°C° 1 mm 7 m/s 754 mmHg 93%
07:00 +17°C° 1 mm 6 m/s 754 mmHg 93%
08:00 +17°C° 1 mm 6 m/s 755 mmHg 92%
09:00 +19°C° 0.6 mm 6 m/s 755 mmHg 90%
10:00 +20°C° 0.6 mm 6 m/s 755 mmHg 87%
11:00 +21°C° 0.6 mm 7 m/s 755 mmHg 85%
12:00 +22°C° 0.9 mm 7 m/s 755 mmHg 82%
13:00 +23°C° 0.9 mm 7 m/s 755 mmHg 79%
14:00 +24°C° 0.9 mm 7 m/s 755 mmHg 76%
15:00 +23°C° 1.6 mm 7 m/s 755 mmHg 79%
16:00 +22°C° 1.6 mm 6 m/s 755 mmHg 83%
17:00 +21°C° 1.6 mm 6 m/s 755 mmHg 86%
18:00 +21°C° 2 mm 5 m/s 756 mmHg 87%
19:00 +20°C° 2 mm 5 m/s 756 mmHg 88%
20:00 +20°C° 2 mm 5 m/s 756 mmHg 90%
21:00 +20°C° 0.8 mm 5 m/s 756 mmHg 90%
22:00 +20°C° 0.8 mm 4 m/s 756 mmHg 90%
23:00 +19°C° 0.8 mm 4 m/s 756 mmHg 90%

17 Iunie, Joi

Timp Temperatura Precipitaţii Vânt Presiune Umiditate
00:00 +19°C° 0.2 mm 5 m/s 756 mmHg 91%
01:00 +19°C° 0.2 mm 5 m/s 756 mmHg 92%
02:00 +17°C° 0.2 mm 5 m/s 757 mmHg 93%
03:00 +17°C° 0.2 mm 5 m/s 757 mmHg 93%
04:00 +17°C° 0.2 mm 5 m/s 757 mmHg 93%
05:00 +17°C° 0.2 mm 5 m/s 757 mmHg 94%
06:00 +19°C° 0 mm 6 m/s 757 mmHg 90%
07:00 +20°C° 0 mm 6 m/s 757 mmHg 86%
08:00 +21°C° 0 mm 7 m/s 757 mmHg 83%
09:00 +21°C° 0 mm 7 m/s 757 mmHg 81%
10:00 +22°C° 0 mm 6 m/s 757 mmHg 79%
11:00 +22°C° 0 mm 6 m/s 758 mmHg 77%
12:00 +22°C° 0.6 mm 6 m/s 758 mmHg 78%
13:00 +23°C° 0.6 mm 5 m/s 757 mmHg 79%
14:00 +23°C° 0.6 mm 5 m/s 757 mmHg 80%
15:00 +23°C° 0.7 mm 5 m/s 758 mmHg 81%
16:00 +22°C° 0.7 mm 5 m/s 758 mmHg 82%
17:00 +22°C° 0.7 mm 5 m/s 758 mmHg 82%
18:00 +21°C° 0.2 mm 4 m/s 758 mmHg 86%
19:00 +20°C° 0.2 mm 3 m/s 758 mmHg 90%
20:00 +19°C° 0.2 mm 3 m/s 758 mmHg 93%
21:00 +19°C° 0 mm 3 m/s 758 mmHg 94%
22:00 +18°C° 0 mm 3 m/s 758 mmHg 94%
23:00 +18°C° 0 mm 3 m/s 758 mmHg 95%

18 Iunie, Vineri

Timp Temperatura Precipitaţii Vânt Presiune Umiditate
00:00 +17°C° 0 mm 3 m/s 758 mmHg 96%
01:00 +17°C° 0 mm 3 m/s 758 mmHg 96%
02:00 +17°C° 0 mm 3 m/s 758 mmHg 97%
03:00 +17°C° 0 mm 3 m/s 758 mmHg 96%
04:00 +18°C° 0 mm 3 m/s 758 mmHg 95%
05:00 +18°C° 0 mm 3 m/s 758 mmHg 94%
06:00 +19°C° 0 mm 3 m/s 758 mmHg 93%
07:00 +20°C° 0 mm 4 m/s 758 mmHg 91%
08:00 +20°C° 0 mm 4 m/s 758 mmHg 89%
09:00 +21°C° 0.2 mm 4 m/s 758 mmHg 85%
10:00 +22°C° 0.2 mm 4 m/s 759 mmHg 80%
11:00 +23°C° 0.2 mm 4 m/s 759 mmHg 76%
12:00 +25°C° 0.2 mm 4 m/s 758 mmHg 73%
13:00 +25°C° 0.2 mm 4 m/s 758 mmHg 70%
14:00 +26°C° 0.2 mm 4 m/s 758 mmHg 67%
15:00 +25°C° 0.5 mm 4 m/s 758 mmHg 73%
16:00 +22°C° 0.5 mm 4 m/s 758 mmHg 79%
17:00 +21°C° 0.5 mm 4 m/s 758 mmHg 84%
18:00 +21°C° 0.3 mm 3 m/s 758 mmHg 87%
19:00 +20°C° 0.3 mm 2 m/s 758 mmHg 91%
20:00 +20°C° 0.3 mm 1 m/s 758 mmHg 94%
21:00 +19°C° 0.1 mm 2 m/s 757 mmHg 94%
22:00 +19°C° 0.1 mm 2 m/s 757 mmHg 95%
23:00 +19°C° 0.1 mm 2 m/s 757 mmHg 95%
Arată mai mult

Formular de consimțământ

Meteoprog și furnizorii noștri de servicii pot stoca și accesa date personale, precum cookies, identificatori de dispozitiv sau alte tehnologii similare pe dispozitivul dumneavoastră și procesa astfel de date pentru a personaliza conținutul și reclamele, dar și pentru a oferi caracteristici de social media și pentru a analiza traficul.

  • Stocarea și/sau accesarea informațiilor pe dispozitivul dumneavoastră

    Cookies, identificatori de dispozitiv sau alte informații pot fi stocate sau accesate pe dispozitiv în scopurile indicate mai sus.

  • Reclame și conținut personalizat, evaluarea reclamelor și a conținutului, informații despre audiențe și dezvoltarea produselor

    Reclamele și conținutul pot fi personalizate pe baza unui profil. Pot fi adăugate date suplimentare pentru a personaliza mai bine reclamele și conținutul. Performanța reclamelor și conținutului poate fi măsurată. Pot fi obținute informații despre utilizatorii care au văzut reclamele și conținutul. Aceste date pot fi utilizate pentru a dezvolta sau îmbunătăți experiența utilizatorilor, sistemele și software-ul.

Dând clic pe ‘Sunt de acord’, permiteți utilizarea cookie-urilor menționate, a identificatorilor de dispozitiv, balizelor web sau altor tehnologii similare. Setările pot fi modificate din browser-ul dispozitivului dumneavoastră.

În anumite scopuri, interesele legitime pot prima asupra consimțământului. Puteți citi mai multe informații în acest sens în Politica privind Confidențialitatea Datelor și Cookie.